Theta_e
350 344 351 356 357 360 360 350 346 351 352 347 348 353 354 353 357 362 352 353 348 345 346 345 347 351 351 345 345 344 340 340 335 338 339 346 347 351 351 351 352 350 350 351 351 350 350 350 350
352 351 355 359 362 352 354 349 351 351 350 347 348 347 350 354 354 354 353 351 345 346 346 347 345 350 349 340 340 340 339 334 342 343 343 345 345 345 350 351 351 351 351 350 352 351 352 349 349
354 356 364 365 362 351 351 349 348 350 355 353 351 346 350 357 354 353 354 349 349 348 346 347 346 349 350 346 341 342 343 338 343 346 342 343 348 348 351 350 351 352 346 350 348 350 353 348 347
356 359 364 368 363 347 347 345 350 351 350 347 345 348 347 351 352 353 353 349 348 348 347 348 345 348 351 350 346 347 348 343 343 343 343 343 346 348 351 351 351 351 349 344 350 352 353 349 347
355 362 368 369 347 346 345 345 354 353 349 347 346 350 351 350 352 353 351 348 347 348 347 347 345 343 346 344 343 344 346 343 344 346 344 344 346 349 351 350 351 349 351 349 351 353 351 348 346
354 358 366 358 350 348 346 349 354 353 351 349 350 350 349 352 352 352 348 345 344 345 346 347 347 347 347 347 346 345 343 345 346 352 348 345 347 347 352 349 350 349 351 346 351 352 351 348 342
359 362 368 368 349 350 347 343 353 351 351 352 347 352 347 351 351 352 351 345 346 342 343 345 345 345 345 346 348 344 344 347 351 349 345 348 350 348 345 345 347 348 349 349 348 350 346 344 344
357 365 368 366 350 348 345 344 350 351 353 348 346 350 350 347 351 351 352 353 352 345 345 345 344 345 346 349 345 343 342 345 349 345 351 352 352 346 346 345 342 343 346 345 336 338 342 346 346
353 359 369 358 348 346 343 344 342 347 351 350 348 346 345 345 350 353 353 353 352 351 347 342 342 343 341 340 341 341 342 345 348 351 351 350 348 345 343 344 341 346 340 339 342 345 345 344 343
357 362 362 355 344 346 343 343 344 350 350 349 346 344 344 344 352 353 352 350 351 350 346 344 342 340 339 338 336 338 344 349 348 346 345 346 342 343 342 343 344 351 349 346 344 342 342 344 344
355 358 356 356 351 349 344 346 348 350 351 348 347 345 343 344 344 352 350 350 350 348 344 342 340 336 335 339 339 345 346 344 343 342 341 343 344 346 351 349 350 349 349 347 344 345 346 348 349
362 358 357 359 348 349 351 349 350 350 349 346 344 343 343 343 341 346 348 349 348 348 342 339 339 337 342 347 348 347 345 343 342 343 344 348 348 350 351 351 351 350 348 345 342 343 347 345 345
362 361 358 356 352 352 354 356 349 349 348 345 344 344 344 342 342 343 346 347 348 348 348 346 347 346 348 351 352 351 349 347 347 346 349 349 350 350 350 350 352 352 350 346 345 347 348 349 347
359 359 360 355 356 355 356 355 350 349 347 346 345 344 343 342 342 342 342 343 347 349 348 349 350 349 348 349 351 351 350 350 350 349 349 349 350 350 351 350 352 352 352 349 349 350 349 349 349
359 363 361 355 354 356 352 355 356 348 346 346 345 345 344 342 343 342 342 343 343 347 349 350 350 350 349 348 347 350 350 352 351 351 349 350 348 349 349 353 352 351 352 351 351 350 351 351 346
366 361 355 353 355 354 348 353 352 350 346 345 344 344 344 342 341 343 343 344 343 343 346 350 350 350 349 350 349 350 349 348 348 351 350 351 347 344 350 350 349 350 351 351 351 350 352 352 347
362 365 362 357 352 354 350 349 353 350 349 345 344 343 342 342 339 342 343 343 344 344 343 349 351 349 349 349 349 349 347 346 347 349 351 351 349 347 348 348 346 347 349 349 348 352 352 352 351
365 364 360 360 357 353 357 354 353 347 353 348 344 342 341 341 340 342 343 344 344 344 343 346 348 348 346 345 346 348 347 347 346 348 348 348 349 349 349 348 347 346 346 348 347 347 349 352 351
363 364 365 354 356 356 357 358 355 350 351 352 342 341 341 340 338 343 345 344 344 344 344 344 345 345 345 346 347 347 347 345 344 346 347 347 347 348 349 350 349 347 345 345 348 350 351 352 351
361 365 361 346 352 355 358 360 356 353 354 354 347 342 341 339 337 340 343 344 345 345 345 345 345 345 346 346 347 349 348 346 344 346 347 345 346 345 346 350 350 348 347 346 346 349 349 348 351
351 361 348 343 357 355 360 357 357 354 353 353 349 345 342 340 338 339 340 342 344 347 345 345 346 346 347 346 348 349 350 350 350 350 350 349 349 347 347 348 349 348 348 347 346 346 348 348 347
354 342 344 345 347 363 350 348 344 351 348 353 352 348 346 341 340 339 339 339 343 346 347 347 348 347 347 347 349 349 351 352 352 352 352 351 350 350 350 349 348 347 347 348 347 347 347 347 347
350 345 346 346 347 346 347 345 342 340 345 351 349 350 349 345 342 340 339 340 342 344 346 347 347 347 347 347 350 351 352 353 354 355 355 355 354 353 353 351 349 346 345 345 347 347 348 347 347
349 346 347 345 343 345 346 343 344 340 339 338 338 348 351 349 347 343 341 342 342 344 345 347 347 347 349 351 352 353 353 353 354 354 354 354 357 358 357 354 350 347 347 346 346 346 347 348 347
340 341 348 352 349 350 344 347 345 344 338 338 339 337 346 348 348 347 345 345 346 346 349 349 350 351 350 352 354 353 354 354 355 355 357 360 359 362 361 359 354 352 350 350 349 349 349 349 349
340 340 343 349 345 346 346 348 340 341 339 337 337 337 337 335 340 342 347 348 348 349 350 351 353 353 354 355 356 356 355 356 356 356 357 360 363 361 357 357 359 359 358 357 356 356 354 354 353
334 332 331 333 335 341 340 340 340 340 340 339 336 337 336 337 340 343 344 348 348 348 350 350 351 353 355 355 357 359 358 358 358 359 361 361 361 355 355 357 358 358 357 357 356 356 355 354 353
333 330 325 323 340 344 340 340 338 343 341 339 333 336 336 338 338 338 339 341 342 348 348 346 342 344 352 357 359 360 359 358 359 361 363 363 355 355 357 359 357 352 352 354 353 354 353 353 353
330 327 324 323 330 337 339 335 331 339 333 333 336 334 334 337 338 339 340 341 341 342 343 341 340 342 350 362 361 359 359 364 363 362 360 357 357 357 351 345 349 352 353 353 352 351 350 350 350
331 330 325 327 329 327 330 336 332 337 337 337 337 339 339 339 340 339 338 340 340 341 341 340 345 361 363 362 361 358 354 360 361 358 357 353 349 346 347 351 355 354 351 348 348 349 349 348 347
Wind_Speed
6 3 3 4 4 4 4 3 5 10 9 3 5 7 10 12 1 3 23 20 32 33 28 26 25 22 21 22 22 21 21 20 19 17 17 17 16 15 14 13 13 11 10 9 9 7 7 9 12
7 6 1 2 5 3 2 2 9 12 14 16 12 9 10 6 7 15 15 28 36 33 29 26 25 24 21 21 22 21 19 19 17 16 15 13 11 11 12 12 12 11 9 9 9 8 6 6 9
6 4 3 3 2 4 5 3 6 13 14 6 5 10 5 5 15 16 23 35 34 32 28 26 25 24 21 21 21 19 17 17 15 13 12 11 10 10 11 11 12 11 9 7 7 7 6 5 6
3 4 1 2 4 4 7 7 17 12 7 10 12 8 6 7 20 19 33 36 35 32 27 25 25 23 22 20 20 18 16 15 14 13 12 11 10 10 11 11 10 10 10 9 8 7 7 5 6
3 1 3 3 3 3 4 8 16 12 7 12 7 6 8 19 23 37 35 35 36 32 27 25 26 24 22 21 20 18 17 16 13 12 12 11 11 11 11 11 10 10 10 10 10 9 8 7 6
4 1 3 3 3 5 5 14 15 15 16 14 12 8 3 30 38 33 37 36 32 32 28 26 24 23 22 20 19 19 17 16 15 14 12 11 11 10 10 11 11 11 11 10 10 10 10 9 9
5 2 3 5 8 6 9 10 13 16 16 7 9 8 9 22 34 36 36 37 34 33 32 29 27 25 23 22 21 19 18 17 16 14 13 12 11 10 10 10 11 11 11 11 11 12 11 10 10
3 2 4 4 5 5 13 5 15 17 11 16 19 8 14 22 35 33 32 34 34 34 33 30 28 26 24 22 20 19 18 17 16 15 14 12 11 10 10 10 11 12 12 12 12 11 10 9 9
3 3 3 3 5 6 8 8 4 12 15 5 6 10 24 32 35 31 25 23 24 26 32 31 31 29 26 23 21 18 17 16 15 15 14 12 13 12 12 12 11 12 12 12 12 10 9 8 8
5 4 4 5 4 6 7 9 11 8 13 12 15 19 25 26 31 28 25 23 23 25 32 32 31 29 26 23 21 21 19 18 18 17 15 14 13 13 12 11 12 11 12 11 11 10 8 7 9
3 4 7 7 5 3 9 6 7 15 5 19 23 21 17 19 26 28 27 31 36 34 32 33 30 28 26 24 23 21 19 18 18 17 16 14 14 14 14 13 14 13 13 14 14 11 11 10 9
4 11 13 9 4 7 7 4 11 13 8 19 23 21 16 14 8 25 26 27 22 29 34 32 30 29 28 25 24 22 20 20 20 21 19 17 16 15 15 19 17 15 15 17 17 16 11 9 10
2 9 13 9 7 5 13 8 7 11 18 18 18 18 17 15 17 23 34 32 31 31 30 32 30 29 28 27 26 24 23 23 21 21 22 21 20 17 18 19 20 19 17 18 19 18 18 11 10
5 21 20 5 8 4 10 12 7 14 18 18 18 16 16 15 19 20 23 27 36 35 35 33 32 31 29 30 28 27 24 25 24 23 22 22 21 20 17 20 22 21 22 15 19 20 17 18 14
14 12 16 4 0 3 3 8 8 13 18 18 16 15 16 15 23 20 28 30 30 38 36 38 35 33 33 32 31 29 24 26 24 27 25 21 22 25 21 14 13 17 16 17 17 20 23 22 18
8 7 6 3 2 1 5 4 5 8 16 14 14 14 13 12 19 26 28 34 32 29 35 39 36 35 30 31 29 31 23 21 10 21 27 26 21 22 22 17 17 15 16 15 17 19 26 25 20
5 3 3 5 5 4 3 3 5 8 9 13 12 12 10 12 10 25 25 28 33 32 27 35 35 31 33 29 25 27 26 22 18 14 25 27 26 25 24 23 21 23 21 20 15 18 25 23 19
4 3 3 5 3 0 2 6 4 9 8 13 10 11 9 11 10 22 27 27 32 32 31 33 36 33 28 23 22 23 23 25 25 21 18 19 28 28 28 27 24 21 24 27 23 20 18 18 23
8 5 10 10 8 7 7 5 4 6 6 8 9 10 10 10 11 26 27 30 32 31 33 33 31 29 28 26 23 22 24 24 25 27 26 25 23 28 32 33 30 24 24 26 26 21 16 17 17
12 12 13 8 8 6 7 7 6 5 8 13 13 12 12 8 7 14 27 32 33 33 34 35 33 31 32 31 30 27 26 25 26 27 28 30 31 29 29 35 36 31 28 27 28 29 25 23 19
10 17 8 6 7 1 7 7 6 6 7 10 14 14 12 15 15 15 18 28 34 36 42 42 40 37 36 35 33 30 25 26 26 30 29 29 29 30 32 32 37 36 33 32 30 28 29 23 24
4 10 6 9 7 5 1 3 4 7 8 14 16 14 14 15 15 16 20 23 31 38 43 45 43 43 42 39 39 38 31 25 29 30 32 33 33 34 36 36 37 38 36 36 34 32 32 30 24
9 1 7 5 6 5 2 5 7 4 7 12 15 17 18 18 18 19 19 30 35 36 39 44 44 43 42 43 43 42 35 34 32 30 31 31 30 30 34 39 42 40 39 39 37 36 34 35 31
9 6 4 5 4 2 6 5 5 6 9 6 6 17 20 19 19 19 30 30 31 32 33 39 40 43 42 41 43 37 34 32 32 32 33 32 27 24 29 34 39 41 41 41 40 41 39 37 35
6 6 3 4 3 5 5 3 9 5 8 10 13 10 17 18 18 16 16 18 22 25 30 32 38 44 48 46 44 45 42 38 36 33 30 30 30 25 21 21 29 35 37 39 40 41 41 38 38
2 8 6 6 3 1 6 4 6 5 8 5 6 7 3 10 10 10 15 17 23 27 35 34 35 40 37 44 50 50 46 42 38 33 31 28 27 29 25 22 23 22 23 27 32 37 40 40 38
4 0 5 6 4 4 3 4 7 4 2 4 9 12 10 9 8 10 12 25 24 31 35 39 39 41 39 47 40 36 38 39 36 31 31 30 26 22 21 21 21 20 18 18 21 28 33 35 38
4 2 4 4 3 1 3 4 4 2 3 4 4 8 6 5 6 5 7 14 15 31 37 33 23 25 35 34 28 26 39 47 31 27 27 27 22 20 19 20 21 21 20 19 21 25 29 31 34
4 4 6 5 5 5 2 4 5 6 7 9 3 6 6 2 3 5 5 12 19 24 31 30 29 22 26 18 20 15 48 31 23 23 25 25 22 22 23 21 19 19 20 23 23 25 28 30 32
5 5 6 5 6 2 5 3 9 10 8 7 8 9 8 10 7 4 5 13 17 21 28 32 18 12 4 5 5 15 37 13 13 19 26 24 25 24 23 20 19 19 22 23 22 25 28 29 30
Wind_Direction
283 293 268 157 77 61 295 19 152 105 89 93 139 111 103 30 66 168 143 162 160 157 159 154 151 151 147 146 144 146 144 136 135 133 130 132 125 123 123 126 134 140 134 135 134 141 142 144 148
330 343 81 86 76 66 349 264 88 101 122 119 105 91 51 78 73 116 119 159 158 157 158 158 158 154 153 152 153 153 148 142 141 137 138 142 143 143 143 140 142 147 147 148 148 152 162 154 152
330 358 47 98 158 164 138 173 138 128 147 125 104 78 79 89 112 131 145 153 155 156 160 160 162 159 161 162 160 160 156 150 154 153 152 151 160 158 157 158 159 155 157 161 169 163 172 171 163
102 8 331 100 226 233 147 161 106 97 94 93 124 72 66 162 140 144 144 152 154 157 158 160 163 162 165 165 164 165 164 159 164 162 164 161 166 171 169 172 174 169 174 176 180 181 173 179 165
258 29 14 312 260 124 145 118 114 100 82 100 98 99 111 152 140 142 149 154 155 158 159 161 166 168 169 170 168 167 165 163 171 173 177 177 177 180 187 189 185 186 187 184 180 181 180 178 179
35 52 26 313 82 90 116 133 108 106 119 106 95 100 101 138 141 151 152 156 158 161 163 161 166 172 175 174 175 174 174 176 180 181 186 186 187 192 199 201 197 194 190 187 183 182 187 183 185
117 123 202 265 105 77 132 138 121 133 137 135 124 115 130 144 152 157 156 158 159 164 167 169 171 173 175 177 177 177 178 180 184 187 190 192 193 199 200 199 199 194 183 182 185 190 192 189 186
108 46 332 284 133 85 109 96 141 148 152 121 139 151 165 158 156 158 158 160 164 168 171 173 175 177 177 177 180 182 183 186 190 196 196 196 198 198 197 193 192 185 185 188 187 187 190 195 203
227 62 272 256 138 156 131 131 90 108 132 184 203 148 153 151 151 145 143 147 158 169 177 178 180 181 181 182 184 189 192 193 195 201 204 200 202 200 199 197 191 190 189 188 190 197 205 203 210
21 348 285 284 184 149 148 139 137 111 115 96 101 130 149 152 141 146 154 160 171 178 184 184 184 184 183 184 189 195 195 199 203 205 201 204 202 202 204 207 206 206 208 206 203 205 213 229 232
308 218 291 284 92 185 152 150 123 117 112 146 141 149 153 162 144 160 167 171 183 187 183 190 190 188 187 189 195 198 203 208 209 207 200 200 202 209 217 219 223 224 219 218 213 212 223 230 224
307 244 259 282 56 99 128 130 145 138 172 149 148 151 151 160 175 160 171 185 178 183 187 191 192 191 191 192 200 202 205 207 209 205 199 199 205 216 228 226 223 220 218 225 224 222 228 228 218
317 306 312 255 99 91 77 74 104 122 135 140 147 150 160 165 182 188 180 189 186 185 189 193 193 194 195 200 206 207 209 209 207 207 207 208 210 218 223 229 229 227 228 227 226 223 225 227 198
20 302 295 297 89 95 108 103 97 128 140 146 153 160 171 175 184 195 191 187 183 187 193 197 197 197 197 205 212 215 216 220 216 216 216 217 218 220 224 228 244 237 234 232 230 229 224 224 220
288 292 309 271 241 114 95 87 107 142 150 153 163 172 181 189 186 198 193 194 191 187 187 197 199 200 200 208 214 218 218 230 234 227 223 220 220 224 224 224 225 227 215 237 242 244 226 228 233
263 220 240 299 137 103 84 233 156 160 154 164 173 179 184 202 185 200 195 195 198 184 188 194 199 202 197 211 211 213 204 202 206 225 223 221 217 216 218 223 218 214 219 234 239 236 231 230 232
236 212 233 316 231 129 102 229 172 163 169 172 181 185 180 197 198 193 196 193 197 190 187 187 191 196 196 190 192 200 212 221 215 213 223 226 220 217 223 232 241 238 233 242 251 241 232 242 242
227 284 223 190 188 79 91 264 152 185 169 184 188 189 182 183 193 190 183 178 185 191 190 188 186 189 199 213 219 223 228 230 225 226 232 229 222 223 228 233 238 241 237 237 249 254 253 250 257
252 259 268 275 197 149 199 230 233 184 176 183 194 192 188 186 191 189 185 182 183 188 191 192 197 206 209 210 213 222 228 231 230 230 233 237 234 235 233 234 235 239 233 236 243 254 261 245 228
244 258 270 273 220 136 187 237 212 181 206 196 188 197 193 187 174 189 183 187 189 192 197 197 202 207 211 216 217 219 225 231 231 232 235 234 236 240 243 241 237 238 236 237 241 249 257 258 244
255 227 242 125 129 197 104 328 282 259 220 223 195 203 191 192 188 189 191 193 191 192 195 199 203 209 213 219 220 220 229 233 234 238 240 239 237 240 245 247 240 240 237 238 237 239 245 247 252
326 201 203 146 110 157 197 245 271 246 227 198 195 200 201 199 199 195 194 195 191 199 200 204 207 209 212 216 218 218 216 221 230 237 243 246 249 250 251 249 245 244 244 241 245 243 241 242 240
229 359 57 359 85 105 230 87 259 190 211 197 203 200 208 204 199 197 201 200 200 198 201 206 211 213 215 217 219 216 212 222 230 236 244 248 252 254 254 250 245 244 246 250 250 249 247 243 239
255 133 44 65 94 35 219 134 270 201 198 228 222 204 208 209 205 205 205 203 202 203 205 208 212 218 218 220 219 219 220 218 223 233 240 251 255 262 256 251 247 246 248 250 253 254 252 251 249
190 76 10 359 8 223 171 93 241 252 227 207 221 210 211 214 203 204 206 206 204 206 206 210 216 216 217 217 221 221 225 227 230 234 233 239 255 251 257 256 253 253 255 257 258 257 258 259 256
235 139 154 196 209 243 144 248 259 223 201 199 236 240 268 119 145 181 207 204 203 205 212 211 216 226 221 217 220 223 225 225 231 238 243 242 247 263 270 262 258 261 267 270 269 267 267 262 262
287 66 191 112 24 81 233 295 322 61 158 85 99 102 112 111 142 150 182 205 200 201 215 221 223 226 223 224 220 218 222 231 235 235 236 245 247 250 255 262 266 267 270 271 277 276 272 271 270
163 209 13 12 117 189 274 328 241 123 220 39 77 79 63 91 151 195 219 222 220 207 218 227 225 231 241 227 214 212 237 237 231 238 237 243 243 250 256 259 266 278 287 293 293 289 286 281 276
3 10 45 109 125 154 126 302 254 217 68 79 88 90 99 139 234 260 283 259 246 236 241 256 254 260 248 201 201 235 242 221 219 228 240 240 245 252 257 261 274 282 289 291 294 291 288 285 281
183 166 122 109 300 61 111 310 342 83 79 112 61 56 59 73 93 127 230 257 260 254 261 267 267 257 232 152 101 24 354 323 257 255 250 240 244 249 253 260 270 283 290 292 291 289 288 287 288